Meridian, MS

4:19 PM CDT on October 21, 2019 (GMT -0500)
Key

Weather History for KMEI - September, 2019

Change the Weather History Date:

Wednesday, September 18, 2019

  Actual Average Record
Temperature  
Mean Temperature 86 °F 74 °F  
Max Temperature 102 °F 86 °F 100 °F (1927)
Min Temperature 70 °F 62 °F 45 °F (1903)
Degree Days  
Heating Degree Days 0 0  
Month to date heating degree days 0 0  
Since 1 July heating degree days 0 0  
Cooling Degree Days 21 10  
Month to date cooling degree days 355 214  
Year to date cooling degree days 2438 1834  
Growing Degree Days 36 (Base 50)    
Moisture  
Dew Point 68 °F    
Average Humidity 62    
Maximum Humidity 90    
Minimum Humidity 29    
Precipitation  
Precipitation 0.22 in 0.11 in 2.81 in (1991)
Month to date precipitation 0.23 2.05  
Year to date precipitation 43.18 41.01  
Sea Level Pressure  
Sea Level Pressure 29.96 in    
Wind  
Wind Speed 2 mph ()    
Max Wind Speed 21 mph    
Max Gust Speed 25 mph    
Visibility 9.9 miles    
Events Rain    
T = Trace of Precipitation, MM = Missing Value Source: Averaged Metar Reports

Daily Weather History Graph

Daily Weather History Graph

Search for Another Location

Airport or City:

Astronomy

Sep. 18, 2019 Rise Set
Actual Time 6:40 AM CDT 6:57 PM CDT
Civil Twilight 6:16 AM CDT 7:21 PM CDT
Nautical Twilight 5:47 AM CDT 7:50 PM CDT
Astronomical Twilight 5:18 AM CDT 8:19 PM CDT
Moon 9:45 PM CDT (9/18) 10:31 AM CDT (9/18)
Length of Visible Light 13h 05m
Length of Day
12h 16m
Waning Gibbous, 82% of the Moon is Illuminated
Sep 18
Waning Gibbous
Sep 21
Last Quarter
Sep 28
New
Oct 5
First Quarter
Oct 13
Full

Hourly Weather History & Observations

Time (CDT) Temp. Heat Index Dew Point Humidity Pressure Visibility Wind Dir Wind Speed Gust Speed Precip Events Conditions
12:58 AM 73.9 °F - 69.1 °F 85% 29.96 in 10.0 mi Calm Calm - N/A   Clear
2:58 AM 73.0 °F - 69.1 °F 87% 29.96 in 10.0 mi Calm Calm - N/A   Clear
4:58 AM 71.1 °F - 68.0 °F 90% 29.97 in 9.0 mi Calm Calm - N/A   Clear
5:58 AM 71.1 °F - 66.9 °F 87% 29.99 in 10.0 mi Calm Calm - N/A   Clear
6:58 AM 71.1 °F - 66.9 °F 87% 30.00 in 9.0 mi Calm Calm - N/A   Clear
7:58 AM 75.0 °F - 69.1 °F 82% 30.00 in 10.0 mi Calm Calm - N/A   Clear
8:58 AM 82.9 °F 87.5 °F 71.1 °F 67% 30.00 in 10.0 mi Calm Calm - N/A   Clear
9:58 AM 91.0 °F 98.2 °F 72.0 °F 53% 30.00 in 10.0 mi WNW 3.5 mph - N/A   Clear
11:58 AM 98.1 °F 101.8 °F 66.0 °F 35% 29.99 in 10.0 mi SSW 4.6 mph - N/A   Clear
12:58 PM 100.0 °F 101.8 °F 63.0 °F 29% 29.97 in 10.0 mi SE 5.8 mph - N/A   Clear
1:58 PM 100.0 °F 103.6 °F 64.9 °F 32% 29.95 in 10.0 mi Calm Calm - N/A   Clear
2:58 PM 98.1 °F 100.7 °F 64.0 °F 33% 29.93 in 10.0 mi WNW 5.8 mph - N/A   Clear
3:58 PM 100.0 °F 103.0 °F 64.0 °F 31% 29.91 in 10.0 mi SW 5.8 mph - N/A   Partly Cloudy
4:58 PM 100.0 °F 101.8 °F 63.0 °F 29% 29.91 in 10.0 mi NNW 6.9 mph - N/A   Overcast
5:58 PM 96.1 °F 98.8 °F 64.9 °F 36% 29.91 in 10.0 mi WNW 4.6 mph - N/A   Partly Cloudy
6:58 PM 87.1 °F 91.3 °F 69.1 °F 55% 29.93 in 10.0 mi North 4.6 mph - N/A   Mostly Cloudy
7:58 PM 82.0 °F 85.9 °F 70.0 °F 67% 29.96 in 10.0 mi NNW 12.7 mph - 0.00 in Rain Light Rain
8:58 PM 79.0 °F - 71.1 °F 77% 29.98 in 9.0 mi WSW 5.8 mph - 0.15 in Rain Light Rain
9:58 PM 78.1 °F - 71.1 °F 79% 29.97 in 10.0 mi SW 4.6 mph - 0.07 in Rain Light Rain
10:58 PM 77.0 °F - 72.0 °F 84% 29.97 in 10.0 mi SSE 6.9 mph - 0.00 in   Scattered Clouds
11:58 PM 78.1 °F - 73.0 °F 84% 29.96 in 10.0 mi Calm Calm - N/A   Partly Cloudy